| time (UTC) | temp F | wind direction | speed MPH | gust MPH | rain 1hr in | rain 24hr in | rain mn in | humidity % | barometer mb |
| 20260507023219 | 53 | 325 | 3.0 | 5.0 | 0.00 | 3.15 | 0.00 | 90 | 1009.9 |
| 20260507021721 | 52 | 317 | 4.0 | 6.0 | 0.00 | 3.15 | 0.00 | 91 | 1009.9 |
| 20260507020222 | 52 | 303 | 3.0 | 6.0 | 0.00 | 3.15 | 0.00 | 93 | 1010.0 |
| 20260507014724 | 52 | 314 | 2.0 | 3.0 | 0.00 | 3.15 | 0.00 | 93 | 1009.9 |
| 20260507013225 | 52 | 313 | 0.0 | 2.0 | 0.00 | 3.15 | 0.00 | 93 | 1009.7 |
| 20260507011726 | 53 | 314 | 3.0 | 3.0 | 0.00 | 3.15 | 0.00 | 93 | 1009.7 |
| 20260507010233 | 53 | 321 | 1.0 | 2.0 | 0.00 | 3.15 | 0.00 | 92 | 1009.6 |
| 20260507004735 | 53 | 322 | 0.0 | 2.0 | 0.00 | 3.15 | 0.00 | 91 | 1009.5 |
| 20260507003217 | 54 | 322 | 1.0 | 3.0 | 0.00 | 3.15 | 0.00 | 90 | 1009.3 |
| 20260507001722 | 54 | 323 | 1.0 | 2.0 | 0.00 | 3.15 | 0.00 | 87 | 1009.4 |
| 20260507000223 | 54 | 322 | 2.0 | 5.0 | 0.00 | 3.15 | 0.00 | 88 | 1009.5 |
| 20260506234724 | 53 | 316 | 3.0 | 5.0 | 0.00 | 3.15 | 0.00 | 91 | 1009.4 |
| 20260506233226 | 52 | 19 | 2.0 | 3.0 | 0.00 | 3.15 | 0.00 | 93 | 1009.4 |
| 20260506231732 | 53 | 19 | 1.0 | 2.0 | 0.00 | 3.15 | 0.00 | 93 | 1009.4 |
| 20260506230233 | 53 | 19 | 0.0 | 0.0 | 0.00 | 3.15 | 0.00 | 92 | 1009.3 |
| 20260506224716 | 53 | 19 | 1.0 | 1.0 | 0.00 | 3.15 | 0.00 | 92 | 1009.2 |
| 20260506223222 | 53 | 19 | 1.0 | 3.0 | 0.00 | 3.15 | 0.00 | 91 | 1009.1 |
| 20260506221724 | 53 | 321 | 1.0 | 4.0 | 0.00 | 3.15 | 0.00 | 91 | 1009.2 |
| 20260506220225 | 53 | 325 | 3.0 | 3.0 | 0.00 | 3.15 | 0.80 | 92 | 1009.1 |
| 20260506214729 | 53 | 336 | 3.0 | 4.0 | 0.00 | 3.15 | 0.80 | 92 | 1009.1 |
| 20260506213230 | 53 | 338 | 3.0 | 4.0 | 0.00 | 3.15 | 0.80 | 93 | 1009.0 |
| 20260506211728 | 53 | 340 | 2.0 | 3.0 | 0.00 | 3.15 | 0.80 | 92 | 1009.0 |
| 20260506210233 | 53 | 338 | 1.0 | 2.0 | 0.00 | 3.15 | 0.80 | 91 | 1009.0 |
| 20260506204734 | 54 | 338 | 1.0 | 3.0 | 0.00 | 3.15 | 0.80 | 89 | 1008.8 |
| 20260506203216 | 53 | 338 | 1.0 | 3.0 | 0.04 | 3.15 | 0.80 | 90 | 1008.8 |
| 20260506201722 | 54 | 17 | 0.0 | 4.0 | 0.04 | 3.15 | 0.80 | 90 | 1008.7 |
| 20260506200224 | 54 | 332 | 2.0 | 4.0 | 0.04 | 3.15 | 0.80 | 89 | 1008.6 |
| 20260506194724 | 55 | 32 | 2.0 | 3.0 | 0.04 | 3.15 | 0.80 | 88 | 1008.5 |
| 20260506193219 | 55 | 83 | 2.0 | 8.0 | 0.00 | 3.11 | 0.79 | 85 | 1008.1 |
| 20260506191720 | 55 | 78 | 2.0 | 9.0 | 0.00 | 3.11 | 0.79 | 85 | 1008.0 |
| 20260506190221 | 55 | 317 | 5.0 | 14.0 | 0.00 | 3.11 | 0.79 | 85 | 1007.8 |
| 20260506184721 | 55 | 322 | 6.0 | 15.0 | 0.00 | 3.11 | 0.79 | 87 | 1007.9 |
| 20260506183227 | 54 | 229 | 4.0 | 8.0 | 0.00 | 3.11 | 0.79 | 92 | 1007.9 |
| 20260506181729 | 54 | 350 | 1.0 | 3.0 | 0.00 | 3.11 | 0.79 | 92 | 1007.0 |
| 20260506180229 | 54 | 351 | 3.0 | 3.0 | 0.00 | 3.11 | 0.79 | 92 | 1006.7 |
| 20260506174735 | 55 | 355 | 2.0 | 3.0 | 0.00 | 3.11 | 0.79 | 92 | 1006.7 |
| 20260506173235 | 55 | 360 | 2.0 | 3.0 | 0.00 | 3.11 | 0.79 | 91 | 1006.4 |
| 20260506171717 | 55 | 5 | 2.0 | 4.0 | 0.00 | 3.11 | 0.79 | 91 | 1006.3 |
| 20260506170223 | 56 | 298 | 2.0 | 3.0 | 0.00 | 3.11 | 0.79 | 90 | 1006.1 |
| 20260506164725 | 56 | 295 | 1.0 | 3.0 | 0.00 | 3.11 | 0.79 | 90 | 1006.2 |
| 20260506163226 | 57 | 331 | 2.0 | 9.0 | 0.16 | 3.11 | 0.79 | 89 | 1006.0 |
| 20260506161732 | 56 | 32 | 5.0 | 10.0 | 1.61 | 3.11 | 0.79 | 91 | 1005.7 |
| 20260506160232 | 55 | 38 | 4.0 | 10.0 | 2.40 | 3.11 | 0.79 | 91 | 1005.4 |
| 20260506154734 | 54 | 47 | 5.0 | 9.0 | 2.95 | 3.11 | 0.79 | 92 | 1005.5 |
| 20260506153218 | 52 | 350 | 5.0 | 16.0 | 2.80 | 2.95 | 0.75 | 90 | 1005.3 |
| 20260506151719 | 56 | 340 | 8.0 | 14.0 | 1.26 | 1.42 | 0.36 | 86 | 1005.7 |
| 20260506150220 | 61 | 342 | 7.0 | 17.0 | 0.51 | 0.67 | 0.17 | 83 | 1005.3 |
| 20260506144726 | 64 | 104 | 5.0 | 15.0 | 0.00 | 0.16 | 0.04 | 82 | 1005.0 |
| 20260506143227 | 66 | 147 | 8.0 | 18.0 | 0.12 | 0.16 | 0.04 | 79 | 1004.8 |
| 20260506141727 | 64 | 115 | 7.0 | 11.0 | 0.12 | 0.16 | 0.04 | 81 | 1005.0 |
| 20260506140249 | 65 | 92 | 7.0 | 19.0 | 0.12 | 0.16 | 0.04 | 80 | 1005.3 |
| 20260506134731 | 64 | 82 | 9.0 | 17.0 | 0.12 | 0.16 | 0.04 | 82 | 1005.4 |
| 20260506133231 | 64 | 41 | 9.0 | 22.0 | 0.00 | 0.04 | 0.01 | 82 | 1005.7 |
| 20260506131731 | 64 | 65 | 9.0 | 19.0 | 0.00 | 0.04 | 0.01 | 82 | 1005.8 |
| 20260506130216 | 64 | 83 | 6.0 | 15.0 | 0.00 | 0.04 | 0.01 | 85 | 1006.0 |
| 20260506124718 | 63 | 101 | 8.0 | 13.0 | 0.00 | 0.04 | 0.01 | 86 | 1006.3 |
| 20260506123217 | 62 | 67 | 7.0 | 18.0 | 0.00 | 0.04 | 0.01 | 88 | 1006.2 |
| 20260506121719 | 60 | 115 | 9.0 | 21.0 | 0.00 | 0.04 | 0.01 | 91 | 1006.3 |
| 20260506120225 | 59 | 18 | 7.0 | 13.0 | 0.00 | 0.08 | 0.01 | 91 | 1006.2 |
| 20260506114724 | 60 | 140 | 8.0 | 21.0 | 0.00 | 0.08 | 0.01 | 88 | 1006.5 |
| 20260506113224 | 61 | 74 | 12.0 | 21.0 | 0.00 | 0.08 | 0.01 | 86 | 1006.6 |
| 20260506111729 | 60 | 92 | 6.0 | 12.0 | 0.00 | 0.08 | 0.01 | 89 | 1006.6 |
| 20260506110229 | 60 | 97 | 9.0 | 20.0 | 0.00 | 0.08 | 0.01 | 88 | 1006.5 |
| 20260506104728 | 60 | 77 | 10.0 | 19.0 | 0.00 | 0.08 | 0.01 | 88 | 1006.6 |
| 20260506103234 | 61 | 53 | 8.0 | 18.0 | 0.00 | 0.08 | 0.01 | 88 | 1006.8 |
| 20260506101734 | 60 | 80 | 8.0 | 16.0 | 0.04 | 0.08 | 0.01 | 89 | 1006.9 |
| 20260506100215 | 60 | 93 | 6.0 | 17.0 | 0.04 | 0.08 | 0.01 | 91 | 1007.0 |
| 20260506094721 | 58 | 104 | 8.0 | 12.0 | 0.04 | 0.08 | 0.01 | 93 | 1007.1 |
| 20260506093221 | 57 | 130 | 3.0 | 15.0 | 0.04 | 0.08 | 0.01 | 93 | 1007.0 |
| 20260506091722 | 57 | 63 | 5.0 | 12.0 | 0.00 | 0.04 | 0.00 | 94 | 1006.8 |
| 20260506090226 | 56 | 120 | 3.0 | 8.0 | 0.00 | 0.04 | 0.00 | 94 | 1007.1 |
| 20260506084728 | 56 | 119 | 4.0 | 13.0 | 0.00 | 0.04 | 0.00 | 93 | 1007.1 |
| 20260506083228 | 57 | 95 | 7.0 | 13.0 | 0.00 | 0.04 | 0.00 | 92 | 1007.0 |
| 20260506081730 | 57 | 110 | 7.0 | 12.0 | 0.00 | 0.04 | 0.00 | 91 | 1007.0 |
| 20260506080216 | 57 | 51 | 3.0 | 14.0 | 0.00 | 0.08 | 0.00 | 93 | 1006.6 |
| 20260506073216 | 57 | 76 | 8.0 | 16.0 | 0.00 | 0.08 | 0.00 | 93 | 1006.9 |
| 20260506071721 | 57 | 56 | 6.0 | 14.0 | 0.00 | 0.08 | 0.00 | 94 | 1006.9 |
| 20260506070224 | 56 | 86 | 6.0 | 14.0 | 0.00 | 0.08 | 0.00 | 94 | 1007.3 |
| 20260506061729 | 57 | 97 | 4.0 | 8.0 | 0.00 | 0.08 | 0.00 | 94 | 1007.2 |
| 20260506060230 | 57 | 98 | 2.0 | 9.0 | 0.00 | 0.08 | 0.00 | 94 | 1007.3 |
| 20260506050221 | 56 | 97 | 3.0 | 10.0 | 0.00 | 0.08 | 0.00 | 94 | 1007.7 |
| 20260506044722 | 56 | 104 | 3.0 | 8.0 | 0.00 | 0.08 | 0.00 | 94 | 1007.9 |
| 20260506043223 | 56 | 98 | 2.0 | 6.0 | 0.00 | 0.08 | 0.00 | 94 | 1007.9 |
| 20260506041725 | 56 | 98 | 1.0 | 4.0 | 0.00 | 0.08 | 0.00 | 94 | 1008.0 |
| 20260506040228 | 56 | 86 | 1.0 | 7.0 | 0.00 | 0.08 | 0.00 | 94 | 1008.2 |
| 20260506034725 | 56 | 94 | 1.0 | 4.0 | 0.00 | 0.08 | 0.00 | 94 | 1008.0 |
| 20260506033226 | 56 | 94 | 2.0 | 8.0 | 0.00 | 0.08 | 0.00 | 94 | 1007.9 |
| 20260506031729 | 56 | 57 | 1.0 | 8.0 | 0.00 | 0.08 | 0.00 | 94 | 1008.0 |
| 20260506030230 | 56 | 107 | 4.0 | 7.0 | 0.00 | 0.08 | 0.00 | 94 | 1008.5 |
| 20260506024732 | 56 | 103 | 1.0 | 6.0 | 0.00 | 0.08 | 0.00 | 94 | 1008.7 |